User: anonymous   Login
Location: Unspecified
(0.0000°N, 0.0000°E)
Time: 18:15:57
(UTC+00:00)
Language:

USA 268 - Orbit

View from above orbital plane
View from above orbital plane
View from above satellite
View from above satellite

Ground track
Ground track

The orbit data is extracted from the following two-line orbital elements,

1 41584U 16036A   21013.37354838 0.00000000  00000-0  00000-0 0    09
2 41584   6.4972 352.3751 0047342  46.1563 314.4124  1.00270000    02
Epoch (UTC): 13 January 2021 08:57:54
Eccentricity: 0.0047342
inclination: 6.4972°
perigee height: 35587 km
apogee height: 35986 km
right ascension of ascending node: 352.3751°
argument of perigee: 46.1563°
revolutions per day: 1.00270000
mean anomaly at epoch: 314.4124°
orbit number at epoch: 0

The dashed part of the orbit path shows where the satellite is in the earth's shadow,  

DLR